Vorticity
3 6 19 10 5 13 -7 9 6 8 5 7 8 7 6 6 3 8 8 3 8 3 6 8 -2 21 -19 13 -0 6 6 5 5 6 7 6 4 6 7 5 5 4 5 8 9 11 11 6 5
5 7 11 10 4 -5 4 4 5 10 5 7 7 7 9 6 7 8 6 8 14 5 8 9 17 0 26 6 10 4 8 5 7 6 6 5 4 8 7 4 5 5 7 7 9 12 3 7 6
6 4 12 -1 -1 11 14 6 4 4 9 7 11 8 6 7 9 7 7 6 10 9 6 7 10 18 5 5 1 7 6 5 6 6 6 4 4 8 5 4 5 8 10 9 10 7 8 36 16
7 7 12 21 0 17 13 8 2 6 9 9 10 7 7 7 12 9 7 8 7 7 6 10 26 4 3 8 3 5 5 5 5 7 6 4 6 7 5 7 6 12 9 6 2 14 1 12 9
7 4 14 35 -0 9 13 14 12 8 6 6 8 8 6 8 9 12 8 10 6 7 8 14 6 -7 5 2 10 7 7 8 6 7 4 5 6 6 6 6 9 11 -2 14 4 -0 11 7 8
21 16 3 1 17 6 3 8 -3 13 5 6 6 9 9 6 7 9 9 10 12 7 10 -1 7 -5 2 3 7 4 9 5 5 7 5 5 6 4 4 6 10 9 -3 -8 -10 5 5 26 -5
16 17 -3 5 4 9 2 6 1 12 8 7 9 8 5 3 8 6 7 10 13 7 8 7 6 7 -3 2 3 4 18 6 5 7 6 6 6 3 2 6 10 3 4 -5 -3 8 14 2 13
-7 3 3 6 8 8 15 10 -6 19 4 3 11 6 9 9 9 7 10 9 8 4 10 12 4 10 8 1 -3 4 6 1 5 6 6 6 5 3 3 7 8 2 -0 2 7 1 1 -5 11
16 9 4 7 8 7 4 5 12 6 5 4 9 12 6 9 7 8 9 11 10 4 6 6 5 2 1 17 12 4 19 5 6 6 6 6 5 3 2 10 9 4 -0 21 5 33 12 18 9
2 8 6 5 4 8 8 8 4 3 10 6 2 9 11 14 13 10 12 11 7 8 2 7 4 6 7 5 8 4 5 6 4 6 5 6 6 1 2 8 9 5 4 -2 -6 25 -6 -0 6
-9 5 4 4 -1 3 7 4 7 2 8 10 6 6 12 15 10 9 11 6 25 -12 50 4 10 -2 7 10 20 2 -1 9 6 5 6 5 5 2 3 5 6 4 -8 2 3 9 2 8 3
12 8 5 3 -1 4 9 8 6 3 7 11 9 8 9 13 14 11 11 7 9 5 3 9 10 6 8 0 11 14 4 2 11 3 7 5 5 4 1 5 7 2 4 16 9 7 10 1 5
14 16 9 3 8 6 9 21 5 5 3 9 11 17 9 10 8 10 11 11 8 12 6 3 7 -5 10 -0 22 15 6 2 5 7 6 4 5 3 2 4 5 9 8 2 6 8 1 6 10
8 8 1 1 -1 7 7 9 -3 7 3 7 7 8 12 11 9 10 15 14 7 9 7 9 6 17 16 8 20 11 22 19 1 9 5 11 4 4 3 3 4 1 2 2 7 8 23 -21 15
4 12 -1 -1 6 4 6 8 13 14 4 1 10 5 13 12 10 8 10 15 11 8 7 6 -2 3 5 6 6 6 6 4 26 16 3 0 15 3 3 2 3 3 6 7 6 6 10 15 -6
4 11 5 10 5 8 2 13 13 9 5 2 4 9 6 14 13 8 7 14 11 6 10 8 6 4 7 5 6 4 4 11 14 7 5 5 1 4 4 4 2 4 3 6 7 7 2 3 8
5 -0 3 7 -1 -7 3 12 10 11 10 10 5 6 9 7 12 10 9 7 14 10 10 13 11 9 7 5 7 6 -4 15 15 16 3 5 5 6 4 6 2 4 3 5 4 3 5 3 5
3 4 4 10 5 1 6 8 9 7 7 10 10 12 8 11 9 13 9 9 8 7 7 9 14 17 10 8 10 4 -1 6 14 10 5 3 8 5 6 4 5 4 4 3 6 10 6 1 3
5 4 6 8 8 12 8 1 14 12 8 15 12 18 6 14 8 10 11 9 10 5 5 6 9 13 11 12 6 6 11 12 4 12 -2 6 5 7 4 7 6 4 8 6 5 2 3 4 4
8 5 4 8 7 7 9 6 16 -6 2 17 1 10 5 13 14 10 11 10 8 11 10 8 7 8 10 10 5 14 15 5 42 29 9 6 5 7 6 8 7 4 4 4 12 11 5 1 2
8 9 4 9 6 10 22 10 7 13 9 3 -7 4 6 6 13 16 10 12 9 8 9 14 9 6 8 9 3 8 9 6 16 2 2 2 3 4 5 6 6 3 8 4 -1 -1 4 3 3
6 4 5 11 10 2 5 -2 2 14 13 0 6 4 6 7 9 10 15 10 11 8 9 9 16 12 9 9 7 15 4 22 6 6 5 10 9 12 7 5 7 9 8 4 3 3 4 6 4
16 13 11 10 7 5 3 9 3 2 9 2 8 12 6 8 10 7 13 13 10 9 8 8 8 13 12 10 11 5 10 6 13 9 7 14 16 9 5 7 4 4 6 7 8 6 8 5 1
8 6 10 7 8 9 -0 4 3 8 15 -2 1 3 7 15 16 15 9 15 12 9 11 8 8 7 13 12 11 11 6 6 3 2 3 6 6 3 5 6 6 6 3 5 5 0 7 8 6
8 5 5 3 9 16 -1 3 6 -1 2 3 1 3 -0 -2 2 13 8 8 13 11 6 13 7 6 8 11 14 12 11 8 5 5 6 5 6 7 4 7 10 6 6 5 6 6 7 8 8
2 3 3 11 7 13 -10 6 -3 3 9 11 11 -0 -3 8 6 24 6 5 5 10 13 4 9 10 6 8 10 11 15 13 10 7 5 6 9 8 9 9 4 3 7 4 6 12 7 5 6
6 10 5 9 12 14 4 5 6 7 8 1 -0 6 -1 10 8 15 16 3 5 5 7 16 7 5 8 7 6 8 11 14 16 10 11 10 13 13 10 5 9 10 4 6 4 11 10 6 6
14 4 12 18 9 13 21 9 3 1 3 11 9 6 1 3 3 8 15 16 12 5 5 5 17 10 6 8 9 6 8 10 13 15 11 8 11 11 13 11 12 14 11 6 11 6 9 9 8
-1 8 11 14 14 8 19 21 18 11 1 -8 -0 6 8 1 7 8 25 7 6 12 5 5 9 11 9 10 11 9 6 8 10 12 12 12 12 11 10 9 8 9 14 11 6 7 7 6 6
11 17 -4 7 16 16 12 2 5 10 1 4 0 3 2 7 13 29 8 -8 13 11 9 6 9 7 5 5 9 12 7 7 9 11 11 11 10 9 9 9 10 13 5 11 8 8 9 8 7
Height
5902 5901 5899 5900 5903 5901 5900 5902 5901 5899 5896 5895 5894 5892 5892 5891 5892 5895 5893 5893 5893 5893 5893 5893 5893 5891 5893 5896 5897 5898 5901 5903 5904 5903 5904 5904 5903 5905 5905 5904 5903 5902 5901 5899 5897 5895 5894 5892 5890
5902 5901 5900 5901 5901 5901 5903 5903 5900 5897 5895 5894 5893 5892 5892 5892 5892 5892 5892 5893 5893 5893 5892 5893 5893 5892 5893 5895 5897 5898 5902 5903 5906 5905 5905 5905 5906 5908 5907 5907 5906 5904 5904 5901 5900 5899 5897 5893 5892
5903 5902 5902 5902 5902 5903 5902 5901 5899 5898 5896 5895 5894 5893 5892 5893 5892 5892 5892 5893 5893 5892 5893 5893 5893 5894 5895 5897 5898 5900 5903 5905 5906 5907 5906 5907 5908 5910 5910 5910 5909 5907 5906 5904 5904 5903 5900 5895 5895
5903 5903 5903 5902 5903 5903 5902 5901 5898 5897 5896 5895 5894 5893 5892 5892 5893 5893 5892 5893 5893 5892 5892 5893 5893 5895 5896 5898 5901 5903 5904 5907 5909 5909 5908 5908 5910 5913 5913 5913 5911 5911 5909 5907 5907 5904 5903 5900 5899
5904 5904 5903 5903 5904 5903 5901 5900 5896 5896 5897 5897 5895 5892 5892 5893 5892 5892 5892 5892 5893 5892 5893 5894 5895 5897 5899 5901 5903 5905 5907 5910 5910 5911 5910 5910 5913 5916 5916 5915 5915 5913 5913 5911 5909 5907 5907 5905 5903
5903 5904 5905 5905 5904 5903 5903 5901 5899 5899 5898 5897 5895 5893 5893 5893 5892 5892 5892 5892 5893 5893 5895 5895 5897 5900 5901 5902 5904 5907 5909 5911 5912 5912 5911 5912 5915 5918 5917 5916 5917 5917 5916 5913 5912 5910 5910 5907 5907
5904 5906 5904 5904 5903 5903 5902 5901 5899 5898 5897 5897 5896 5894 5894 5892 5893 5892 5891 5892 5893 5894 5895 5897 5898 5901 5903 5903 5906 5908 5909 5911 5912 5912 5913 5915 5917 5919 5918 5918 5920 5920 5918 5914 5913 5912 5909 5908 5908
5905 5905 5902 5903 5903 5902 5902 5899 5899 5897 5896 5895 5894 5895 5894 5892 5892 5891 5891 5892 5893 5893 5895 5896 5898 5900 5903 5905 5908 5910 5911 5912 5913 5912 5914 5917 5918 5920 5920 5921 5921 5920 5920 5918 5916 5915 5912 5910 5910
5907 5906 5902 5902 5902 5901 5901 5899 5897 5896 5895 5894 5894 5894 5893 5892 5890 5890 5891 5891 5892 5893 5893 5896 5897 5900 5903 5905 5908 5910 5911 5912 5912 5913 5915 5917 5919 5920 5922 5925 5924 5922 5921 5921 5918 5917 5914 5913 5912
5908 5906 5904 5904 5903 5903 5903 5902 5899 5897 5895 5893 5892 5894 5893 5891 5890 5890 5890 5890 5890 5891 5892 5894 5897 5899 5902 5904 5908 5911 5912 5912 5913 5914 5916 5918 5920 5921 5924 5927 5928 5925 5923 5922 5920 5919 5918 5917 5913
5907 5907 5904 5906 5906 5906 5906 5904 5901 5898 5895 5893 5893 5894 5893 5892 5891 5889 5889 5889 5890 5890 5887 5893 5897 5899 5902 5903 5907 5910 5911 5913 5913 5915 5917 5919 5921 5921 5924 5926 5927 5927 5927 5925 5923 5922 5923 5921 5918
5908 5906 5906 5907 5906 5905 5905 5904 5902 5898 5896 5895 5894 5893 5893 5892 5891 5889 5888 5889 5889 5890 5890 5893 5897 5899 5901 5902 5905 5908 5909 5912 5913 5915 5917 5919 5921 5922 5924 5926 5927 5927 5929 5927 5926 5926 5926 5923 5921
5908 5906 5905 5906 5905 5905 5903 5903 5902 5900 5898 5896 5894 5892 5891 5891 5891 5889 5889 5890 5889 5889 5891 5893 5895 5898 5899 5901 5904 5906 5907 5911 5913 5915 5916 5919 5922 5922 5925 5927 5927 5928 5929 5929 5929 5929 5929 5926 5925
5908 5906 5905 5904 5904 5903 5902 5900 5902 5901 5899 5897 5895 5893 5891 5891 5889 5890 5889 5890 5890 5890 5892 5893 5894 5896 5899 5900 5902 5905 5906 5909 5912 5914 5915 5918 5921 5923 5924 5927 5928 5930 5930 5931 5930 5931 5931 5928 5927
5908 5907 5907 5905 5905 5903 5902 5902 5901 5901 5899 5897 5896 5893 5892 5892 5890 5890 5890 5890 5890 5891 5892 5893 5895 5898 5899 5900 5903 5905 5906 5908 5910 5913 5915 5917 5920 5922 5924 5927 5928 5929 5930 5932 5931 5931 5932 5931 5929
5908 5907 5907 5906 5905 5904 5903 5903 5901 5902 5900 5898 5896 5894 5893 5893 5892 5890 5890 5891 5891 5890 5892 5893 5895 5897 5899 5901 5903 5904 5906 5908 5909 5912 5915 5917 5919 5921 5923 5925 5928 5929 5930 5931 5931 5931 5930 5931 5929
5908 5907 5907 5906 5905 5904 5904 5903 5902 5902 5900 5898 5896 5894 5894 5894 5894 5892 5890 5891 5891 5892 5891 5893 5895 5897 5898 5900 5902 5903 5905 5906 5907 5911 5914 5917 5919 5920 5922 5924 5927 5929 5929 5930 5930 5931 5931 5931 5931
5906 5906 5905 5906 5905 5902 5902 5903 5902 5901 5900 5898 5896 5895 5894 5894 5894 5893 5891 5891 5892 5893 5893 5893 5895 5896 5898 5900 5902 5902 5904 5906 5906 5908 5912 5916 5918 5920 5922 5924 5926 5927 5929 5929 5930 5931 5932 5932 5932
5904 5904 5904 5904 5903 5902 5901 5902 5901 5899 5898 5898 5896 5896 5894 5895 5893 5892 5893 5892 5893 5893 5894 5895 5896 5898 5900 5900 5901 5901 5902 5903 5904 5905 5910 5914 5917 5920 5922 5923 5925 5927 5928 5928 5929 5929 5930 5930 5930
5903 5902 5902 5902 5901 5900 5899 5900 5902 5900 5899 5898 5897 5896 5894 5894 5893 5892 5892 5893 5893 5893 5893 5895 5896 5898 5899 5900 5900 5898 5899 5900 5898 5902 5909 5913 5914 5917 5921 5923 5924 5925 5926 5927 5927 5929 5929 5928 5929
5900 5901 5900 5900 5899 5898 5898 5899 5898 5899 5899 5899 5897 5897 5895 5892 5893 5893 5893 5892 5892 5893 5893 5894 5895 5896 5898 5899 5899 5897 5898 5899 5899 5905 5908 5910 5912 5915 5918 5921 5923 5925 5927 5926 5926 5927 5928 5928 5928
5897 5897 5897 5899 5897 5898 5897 5897 5896 5897 5898 5900 5899 5897 5895 5893 5893 5892 5893 5893 5892 5892 5892 5893 5894 5894 5896 5897 5898 5898 5898 5899 5901 5904 5907 5909 5911 5913 5917 5918 5921 5923 5924 5924 5924 5926 5926 5927 5928
5895 5894 5895 5896 5896 5896 5896 5897 5895 5895 5897 5900 5899 5898 5896 5893 5893 5892 5892 5892 5892 5892 5892 5893 5894 5894 5894 5896 5898 5898 5899 5900 5903 5905 5906 5908 5910 5911 5915 5917 5918 5920 5921 5922 5923 5924 5924 5925 5925
5892 5892 5892 5892 5893 5893 5893 5894 5895 5896 5896 5897 5899 5899 5896 5893 5893 5893 5891 5892 5892 5891 5892 5892 5892 5892 5893 5894 5895 5898 5899 5900 5902 5904 5905 5906 5909 5910 5912 5915 5917 5918 5919 5920 5921 5922 5922 5922 5922
5888 5888 5887 5889 5889 5892 5890 5892 5893 5893 5894 5896 5896 5897 5897 5895 5895 5893 5892 5891 5890 5891 5892 5892 5891 5891 5892 5893 5894 5896 5898 5900 5900 5903 5904 5906 5907 5908 5909 5911 5913 5914 5915 5916 5918 5919 5920 5920 5920
5885 5885 5884 5884 5886 5887 5885 5888 5890 5891 5893 5893 5894 5895 5895 5895 5894 5893 5891 5890 5889 5889 5890 5890 5890 5890 5890 5891 5892 5893 5895 5897 5898 5899 5901 5903 5905 5906 5907 5908 5909 5910 5912 5913 5915 5916 5917 5918 5919
5881 5881 5881 5881 5881 5883 5883 5883 5886 5888 5890 5890 5890 5891 5892 5891 5893 5892 5890 5889 5889 5888 5889 5889 5889 5889 5889 5889 5890 5891 5892 5894 5895 5896 5899 5900 5902 5903 5904 5905 5906 5907 5908 5911 5912 5914 5914 5915 5916
5878 5878 5878 5877 5877 5878 5880 5882 5882 5883 5884 5884 5885 5886 5888 5888 5889 5891 5889 5888 5888 5888 5887 5887 5887 5888 5888 5888 5889 5890 5890 5891 5893 5894 5895 5897 5899 5900 5900 5900 5903 5905 5906 5907 5908 5909 5911 5911 5912
5874 5874 5873 5873 5874 5874 5876 5879 5879 5880 5878 5879 5879 5881 5884 5886 5887 5889 5888 5887 5887 5887 5885 5885 5886 5887 5886 5887 5887 5887 5888 5889 5889 5891 5892 5894 5896 5897 5897 5899 5901 5901 5903 5904 5905 5906 5907 5907 5907
5869 5869 5868 5869 5871 5870 5871 5874 5874 5875 5875 5876 5876 5878 5880 5883 5885 5886 5886 5885 5884 5884 5883 5883 5884 5885 5886 5886 5885 5886 5886 5887 5887 5888 5890 5892 5893 5894 5895 5896 5898 5898 5899 5900 5901 5902 5902 5902 5901